Hourly Data Report for September 19, 2017

All times are specified in Local Standard Time (LST). Add 1 hour to adjust for Daylight Saving Time where and when it is observed.

KUGLUKTUK A
NUNAVUT

67°49'00.000" N
115°08'38.000" W
22.60 m
2300903
71938
YCO

Download Data

Hourly Data (September 2017)
Hourly Data Report for September 19, 2017
Temp Definition
°C
Dew Point Temp Definition
°C
Rel Hum Definition
%
Wind Dir Definition
10's deg

Wind Spd Definition
km/h
Visibility Definition
km
Stn Press Definition
kPa
Hmdx Definition


Wind Chill Definition


Weather Definition


TIME
00:00 Legend Double Dagger 4.4 4.1 97 7 18 9.7 101.42     Drizzle,Fog
01:00 Legend Double Dagger 4.2 3.9 98 8 19 9.7 101.44     Drizzle,Fog
02:00 Legend Double Dagger 4.3 4.1 98 7 20 4.8 101.46     Drizzle,Fog
03:00 Legend Double Dagger 4.2 3.9 98 7 25 9.7 101.47     Drizzle,Fog
04:00 Legend Double Dagger 4.2 3.9 98 7 22 8.1 101.49     Drizzle,Fog
05:00 Legend Double Dagger 4.4 4.3 99 7 22 2.4 101.49     Drizzle,Fog
06:00 Legend Double Dagger 4.5 4.5 100 7 25 1.6 101.51     Drizzle,Fog
07:00 Legend Double Dagger 4.7 4.4 98 8 26 8.1 101.53     Drizzle,Fog
08:00 Legend Double Dagger 5.0 4.2 94 9 22 9.7 101.56     Rain,Fog
09:00 Legend Double Dagger 5.3 4.6 95 9 24 12.9 101.57     LegendNANA
10:00 Legend Double Dagger 5.5 4.8 95 9 25 19.3 101.59     LegendNANA
11:00 Legend Double Dagger 5.5 4.4 93 8 27 19.3 101.61     Cloudy
12:00 Legend Double Dagger 6.5 4.9 89 8 27 24.1 101.61     LegendNANA
13:00 Legend Double Dagger 6.7 5.1 89 7 21 24.1 101.65     LegendNANA
14:00 Legend Double Dagger 6.5 5.2 91 9 26 24.1 101.65     Cloudy
15:00 Legend Double Dagger 6.4 5.1 91 8 27 24.1 101.66     LegendNANA
16:00 Legend Double Dagger 5.9 4.6 91 8 27 24.1 101.69     LegendNANA
17:00 Legend Double Dagger 5.9 4.6 91 9 28 24.1 101.71     Cloudy
18:00 Legend Double Dagger 5.8 4.3 90 10 30 24.1 101.73     LegendNANA
19:00 Legend Double Dagger 5.2 4.0 92 10 26 24.1 101.77     LegendNANA
20:00 Legend Double Dagger 5.3 4.1 92 9 24 24.1 101.79     Mostly Cloudy
21:00 Legend Double Dagger 5.0 4.0 93 9 17 24.1 101.84     LegendNANA
22:00 Legend Double Dagger 4.2 3.5 95 10 15 24.1 101.87     LegendNANA
23:00 Legend Double Dagger 3.7 2.6 93 10 16 24.1 101.88     Mainly Clear

Notes on Data Quality.

Legend

  • E = Estimated
  • M = Missing
  • NA = Not Available
  • ‡ = Partner data that is not subject to review by the National Climate Archives
Date modified: